Weather in Tri Rutki

Russia / Mari El Republic     56°31′25″N   46°37′43″E
temp.,
°C
wind,
m/s
gust,
m/s
humid.,
%
clouds,
%
prec.,
mm/h
press.,
hPa
HPBL,
m
21 january, fri
fri2100:00−8ssw5148598 0.0 1013523
03:00−10s41388100 0.0 1013407
06:00−12s41390100 0.0 1013422
09:00−12s51588100 0.0 1014453
12:00−10s41487100 0.0 1014517
15:00−9sse41384100 0.0 1014539
18:00−9se51390100 0.0 1014489
21:00−9se51588100 0.0 1013578
22 january, sat
sat2200:00−9se61487100 0.0 1013608
03:00−9se51294100 0.8 1013586
06:00−9se51193100 0.8 1014497
09:00−10se4109489 0.9 1016334
12:00−8se489399 0.1 1017368
15:00−7ese3994100 0.1 1018440
18:00−7ese3995100 0.8 1018491
21:00−6ese3995100 1.4 1019373
23 january, sun
sun2300:00−5se3995100 0.7 1019500
03:00−4s379693 1.9 1020375
06:00−14s2210095 0.1 102321
09:00−14s12100100 0.1 102633
12:00−7ssw249489 0.0 1028197
15:00−8ssw1197100 0.0 103010
18:00−13ssw0198100 0.0 10329
21:00−15n1199100 0.0 10349
24 january, mon
mon2400:00−17nne1199100 0.0 10359
03:00−17nne119966 0.0 10379
06:00−18ne1110071 0.0 10379
09:00−18ne1110091 0.0 103923
12:00−8e129490 0.0 1038154
15:00−8e119767 0.0 103710
18:00−14e1110095 0.0 10389
21:00−16ese11100100 0.0 103713
25 january, tue
tue2500:00−18se21100100 0.0 103624
03:00−19ese229812 0.0 103427
06:00−18se259818 0.0 103366
09:00−17se379710 0.0 1032101
12:00−10sse378665 0.0 1030233
15:00−10s269059 0.0 1029169
18:00−14sse2794100 0.0 1028101
21:00−14sse2793100 0.0 1027103